NOAA 16 DEB

Satellite information

Favourite Embed

Satellite Type and Status

DEBRISIN ORBIT

Key statistics

Satellite NOAA 16 DEB at a glance.

Uptime

9214

Days in orbit

Revolutions

≈ 14.2

Per day

Orbit

SSO

Sun Synchronous Orbit

Inclination

98.7

Latest

Satellite identification and parameters

Extended collection of information and parameters for NOAA 16 DEB.

Object identification

Identified? True

Debris? True

Object name: NOAA 16 DEB

International designator: 2000-055HW

Object number (NORAD): 41353

Object ID (CCSDS): 41353

Country: UNITED STATES OF AMERICA (US)

Current information (Y/N): Y

RCS size: SMALL

Orbital parameters

Period: 101.092 minutes

Inclination: 98.7018 deg

SMA: 7188.487 km

Apoapsis: 827.805 km

Periapsis: 792.899 km

RAAN: 49.7073 deg

Eccentricy: 0.00242789

Argument of periapsis: 249.4696 deg

Mean anomaly: 110.3877 deg

Mean motion: 14.24447813 rev/day

Mean motion (dot): 0.00006047 rev/day2

B* drag term: 0.0026203587 1/REarth

Two-line elements (TLE)

Creation date: Dec. 12, 2025, 10:14 a.m.

Reference frame: TEME

Reference center: EARTH

Epoch: Dec. 12, 2025, 3:10 a.m. UTC

TLE line 0: 0 NOAA 16 DEB

TLE line 1: 1 41353U 00055HW 25346.13239795 .00006047 00000-0 26204-2 0 9998

TLE line 2: 2 41353 98.7018 49.7073 0024279 249.4696 110.3877 14.24447813509330

Live tracking on map

Real-time ground track for satellite NOAA 16 DEB.

In-orbit conjunctions

A list of the most updated potential collisions computed for object NOAA 16 DEB.

Target Orbit TCA Probability of collision Miss distance Type
CZ-6A DEB LEO 2024-12-18 02:32:11 0.0002071488 595.0 (m) DEBRIS
SL-16 DEB LEO 2024-12-05 17:29:26 0.0001897753 209.0 (m) DEBRIS
SL-12 R/B(2) LEO 2024-11-14 08:00:51 0.0001443953 933.0 (m) ROCKET BODY
SL-16 R/B LEO 2024-10-31 09:16:57 0.0001025442 214.0 (m) ROCKET BODY
MAGION 2 HEO 2024-07-19 08:35:46 0.0004018134 689.0 (m) PAYLOAD

Associated space launch

The NOAA K, L and M POES satellites begin the fifth generation of improved environmental monitoring in support of NOAA missions. The instrument payload has significant improvements and additions/deletions. The instrument changes have effected the spacecraft subsystems and data formats.

NOAA 16 DEB was lifted into orbit during the mission ‘Titan II SLV | NOAA 16’, on board a Titan II SLV space rocket.

The launch took place on Sept. 21, 2000, 10:22 a.m. from Space Launch Complex 4W.

For more information about the launch, click the button.

Launch to space Titan II SLV | NOAA 16
Titan II SLV | NOAA 16

Agency: N/A

Status: Launch Successful

Launch date: Sept. 21, 2000, 10:22 a.m. UTC

Rocket: Titan II SLV

Launch pad: Space Launch Complex 4W

Location: Vandenberg SFB, CA, USA

...

Latest news about this satellite

There are no fresh news available about this satellite. Check back as we update our databases every day.


Newsletter sign-up

Weekly statistics, charts and insights to help you stay on top of the space industry.